User: anonymous   Login
Location: Cutler
(25.6150°N, 80.3110°W)
Time: 19:39:26
(UTC-04:00)
Language:

Cosmos 2360 Rocket - Orbit

View from above orbital plane
View from above orbital plane
View from above satellite
View from above satellite

Ground track
Ground track

The orbit data is extracted from the following two-line orbital elements,

1 25407U 98045B   14303.17768062  .00000188  00000-0  12023-3 0  6043
2 25407 071.0120 260.8371 0009546 240.8941 209.0044 14.15672677840175
Epoch (UTC): 30 October 2014 04:15:51
Eccentricity: 0.0009546
inclination: 71.0120°
perigee height: 833 km
apogee height: 847 km
right ascension of ascending node: 260.8371°
argument of perigee: 240.8941°
revolutions per day: 14.15672677
mean anomaly at epoch: 209.0044°
orbit number at epoch: 84017

The dashed part of the orbit path shows where the satellite is in the earth's shadow,  

DLR